Tracking 29606 objects as of 19-Sep-2024
HD Live streaming from Space Station
objects crossing your sky now

ION SCV-002

Track ION SCV-002 now!
10-day predictions
ION SCV-002 is classified as:


NORAD ID: 47504
Int'l Code: 2021-006CV
Perigee: 485.6 km
Apogee: 505.6 km
Inclination: 97.1 °
Period: 94.4 minutes
Semi major axis: 6866 km
RCS: Unknown
Launch date: January 24, 2021
Source: Italy (IT)
Launch site: AIR FORCE EASTERN TEST RANGE (AFETR)

Uplink (MHz):
Downlink (MHz):
Beacon (MHz):
Mode: 1200bps FSK
Call sign:
Status: Unknown

Your satellite tracking list
Your tracking list is empty




NASA's NSSDC Master Catalog

Two Line Element Set (TLE):
1 47504U 21006CV  24262.55377897  .00012688  00000-0  49777-3 0  9998
2 47504  97.1234 275.4935 0014538 245.6822 114.2899 15.25768247202356
Source of the keplerian elements: AFSPC